Voltar ao catálogo

FENGYUN 1C DEB

AtivoPO
NORAD 36996·DEBRIS·🇨🇳 China

Lançado May 10, 1999 de Taiyuan Satellite Launch Center

Loading…

Próximas Passagens (próximas 24 horas)

TLE

EnvelhecendoSource: Space-Track

Época: Sep 6, 2026, 16:12 UTC

1 36996U 99025ECC 26249.67567427  .00000879  00000-0  36943-3 0  9997
2 36996  98.2544  25.7562 0249464 295.7149  73.3467 14.12882639634748

Acompanhe FENGYUN 1C DEB em tempo real com AllMySat

Download on the App Store